#timestamp,LO_Frequency,Hit,Temp,Hum 
1478235615.6,286047118.8,N,0.0,0.0
1478235635.5,286047117.9,N,0.0,0.0
1478235655.3,286047115.3,N,0.0,0.0
1478235675.1,286047117.2,N,0.0,0.0
1478235695.9,286047117.6,N,0.0,0.0
1478235715.7,286047115.1,N,0.0,0.0
1478235735.5,286047118.0,N,0.0,0.0
1478235755.4,286047112.3,N,0.0,0.0
1478235775.2,286047113.7,N,0.0,0.0
1478235795.0,286047113.8,N,0.0,0.0
1478235795.9,286047113.8,N,0.0,0.0
1478235815.8,286047115.3,N,0.0,0.0
1478235835.6,286047113.7,N,0.0,0.0
1478235855.5,286047114.0,N,0.0,0.0
1478235875.3,286047113.4,N,0.0,0.0
1478235895.1,286047114.2,N,0.0,0.0
1478235915.9,286047113.0,N,0.0,0.0
1478235935.7,286047110.1,N,0.0,0.0
1478235955.5,286047110.3,N,0.0,0.0
1478235975.4,286047113.2,N,0.0,0.0
1478235995.2,286047112.1,N,0.0,0.0
1478236015.0,286047112.3,N,0.0,0.0
1478236015.9,286047112.3,N,0.0,0.0
1478236035.8,286047112.1,N,0.0,0.0
1478236055.6,286047112.2,N,0.0,0.0
1478236075.4,286047114.4,N,0.0,0.0
1478236095.3,286047113.8,N,0.0,0.0
1478236115.1,286047115.8,N,0.0,0.0
1478236135.8,286047116.1,N,0.0,0.0
1478236155.7,286047116.1,N,0.0,0.0
1478236175.5,286047115.2,N,0.0,0.0
1478236195.4,286047115.9,N,0.0,0.0
1478236215.2,286047113.7,N,0.0,0.0
1478236235.0,286047114.2,N,0.0,0.0
1478236235.9,286047114.2,N,0.0,0.0
1478236255.8,286047112.1,N,0.0,0.0
1478236275.6,286047114.5,N,0.0,0.0
1478236295.4,286047113.5,N,0.0,0.0
1478236315.3,286047116.3,N,0.0,0.0
1478236335.1,286047114.8,N,0.0,0.0
1478236355.8,286047112.0,N,0.0,0.0
1478236375.7,286047112.9,N,0.0,0.0
1478236395.5,286047110.4,N,0.0,0.0
1478236415.3,286047110.8,N,0.0,0.0
1478236435.2,286047112.2,N,0.0,0.0
1478236455.0,286047113.4,N,0.0,0.0
1478236455.9,286047113.4,N,0.0,0.0
1478236475.7,286047114.1,N,0.0,0.0
1478236495.6,286047111.7,N,0.0,0.0
1478236515.4,286047111.7,N,0.0,0.0
1478236535.3,286047113.5,N,0.0,0.0
1478236555.1,286047112.1,N,0.0,0.0
1478236556.0,286047112.1,N,0.0,0.0
1478236575.8,286047114.4,N,0.0,0.0
1478236595.7,286047114.3,N,0.0,0.0
1478236615.5,286047114.5,N,0.0,0.0
1478236635.3,286047112.9,N,0.0,0.0
1478236655.2,286047112.1,N,0.0,0.0
1478236675.0,286047111.8,N,0.0,0.0
1478236675.9,286047111.8,N,0.0,0.0
1478236695.7,286047112.4,N,0.0,0.0
1478236715.6,286047114.8,N,0.0,0.0
1478236735.4,286047111.8,N,0.0,0.0
1478236755.2,286047111.7,N,0.0,0.0
1478236775.1,286047114.3,N,0.0,0.0
1478236776.0,286047114.3,N,0.0,0.0
1478236795.8,286047114.8,N,0.0,0.0
1478236815.7,286047114.3,N,0.0,0.0
1478236835.5,286047112.2,N,0.0,0.0
1478236855.3,286047112.3,N,0.0,0.0
1478236875.2,286047112.7,N,0.0,0.0
1478236895.9,286047113.7,N,0.0,0.0
1478236915.7,286047114.6,N,0.0,0.0
1478236935.6,286047111.7,N,0.0,0.0
1478236955.4,286047113.1,N,0.0,0.0
1478236975.2,286047112.8,N,0.0,0.0
1478236995.1,286047112.8,N,0.0,0.0
1478236996.0,286047112.8,N,0.0,0.0
1478237015.8,286047110.3,N,0.0,0.0
1478237035.6,286047111.5,N,0.0,0.0
1478237055.5,286047111.2,N,0.0,0.0
1478237075.3,286047109.4,N,0.0,0.0
1478237095.2,286047106.9,N,0.0,0.0
1478237115.9,286047107.2,N,0.0,0.0
1478237135.7,286047110.4,N,0.0,0.0
1478237155.6,286047110.4,N,0.0,0.0
1478237175.4,286047111.3,N,0.0,0.0
1478237195.2,286047111.6,N,0.0,0.0
1478237215.1,286047110.9,N,0.0,0.0
1478237216.0,286047110.9,N,0.0,0.0
1478237235.8,286047110.8,N,0.0,0.0
1478237255.6,286047110.5,N,0.0,0.0
1478237275.5,286047108.9,N,0.0,0.0
1478237295.3,286047107.5,N,0.0,0.0
1478237315.1,286047108.6,N,0.0,0.0
1478237335.9,286047109.1,N,0.0,0.0
1478237355.7,286047108.8,N,0.0,0.0
1478237375.6,286047107.4,N,0.0,0.0
1478237395.4,286047107.0,N,0.0,0.0
1478237415.2,286047105.8,N,0.0,0.0
1478237435.1,286047108.3,N,0.0,0.0
1478237436.0,286047108.3,N,0.0,0.0
1478237455.8,286047107.5,N,0.0,0.0
1478237475.6,286047108.8,N,0.0,0.0
1478237495.5,286047111.6,N,0.0,0.0
1478237515.3,286047105.4,N,0.0,0.0
1478237535.1,286047109.8,N,0.0,0.0
1478237555.9,286047109.8,N,0.0,0.0
1478237575.7,286047111.4,N,0.0,0.0
1478237595.5,286047109.8,N,0.0,0.0
1478237615.4,286047110.3,N,0.0,0.0
1478237635.2,286047113.2,N,0.0,0.0
1478237655.0,286047111.3,N,0.0,0.0
1478237656.0,286047111.3,N,0.0,0.0
1478237675.8,286047110.8,N,0.0,0.0
1478237695.6,286047108.6,N,0.0,0.0
1478237715.5,286047110.8,N,0.0,0.0
1478237735.3,286047111.6,N,0.0,0.0
1478237755.1,286047106.9,N,0.0,0.0
1478237775.9,286047107.9,N,0.0,0.0
1478237795.7,286047107.3,N,0.0,0.0
1478237815.5,286047105.5,N,0.0,0.0
1478237835.4,286047108.3,N,0.0,0.0
1478237855.2,286047108.7,N,0.0,0.0
1478237875.0,286047109.8,N,0.0,0.0
1478237875.9,286047109.8,N,0.0,0.0
1478237895.8,286047111.6,N,0.0,0.0
1478237915.6,286047111.6,N,0.0,0.0
1478237935.4,286047110.5,N,0.0,0.0
1478237955.3,286047110.8,N,0.0,0.0
1478237975.1,286047110.6,N,0.0,0.0
1478237995.9,286047112.9,N,0.0,0.0
1478238015.7,286047113.1,N,0.0,0.0
1478238035.5,286047111.9,N,0.0,0.0
1478238055.4,286047113.1,N,0.0,0.0
1478238075.2,286047112.0,N,0.0,0.0
1478238095.0,286047111.9,N,0.0,0.0
1478238095.9,286047111.9,N,0.0,0.0
1478238115.8,286047113.6,N,0.0,0.0
1478238135.6,286047111.7,N,0.0,0.0
1478238155.4,286047111.1,N,0.0,0.0
1478238175.3,286047114.4,N,0.0,0.0
1478238195.1,286047112.3,N,0.0,0.0
1478238215.8,286047116.9,N,0.0,0.0
1478238235.7,286047110.3,N,0.0,0.0
1478238255.5,286047112.6,N,0.0,0.0
1478238275.3,286047113.7,N,0.0,0.0
1478238295.2,286047114.8,N,0.0,0.0
1478238315.0,286047111.1,N,0.0,0.0
1478238315.9,286047111.1,N,0.0,0.0
1478238335.8,286047111.1,N,0.0,0.0
1478238355.6,286047111.0,N,0.0,0.0
1478238375.4,286047111.1,N,0.0,0.0
1478238395.3,286047107.6,N,0.0,0.0
1478238415.1,286047107.9,N,0.0,0.0
1478238435.8,286047107.5,N,0.0,0.0
1478238455.7,286047107.6,N,0.0,0.0
1478238475.5,286047107.7,N,0.0,0.0
1478238495.3,286047107.8,N,0.0,0.0
1478238515.2,286047105.6,N,0.0,0.0
1478238535.0,286047105.9,N,0.0,0.0
1478238535.9,286047105.9,N,0.0,0.0
1478238555.8,286047108.4,N,0.0,0.0
1478238575.6,286047105.3,N,0.0,0.0
1478238595.4,286047108.4,N,0.0,0.0
1478238615.3,286047107.7,N,0.0,0.0
1478238635.1,286047109.8,N,0.0,0.0
1478238636.0,286047109.8,N,0.0,0.0
1478238655.8,286047109.7,N,0.0,0.0
1478238675.7,286047110.1,N,0.0,0.0
1478238695.5,286047110.8,N,0.0,0.0
1478238715.3,286047110.4,N,0.0,0.0
1478238735.2,286047110.4,N,0.0,0.0
1478238755.0,286047109.9,N,0.0,0.0
1478238755.9,286047109.9,N,0.0,0.0
1478238775.7,286047110.0,N,0.0,0.0
1478238795.6,286047108.3,N,0.0,0.0
1478238815.4,286047107.8,N,0.0,0.0
1478238835.2,286047106.1,N,0.0,0.0
1478238855.1,286047106.7,N,0.0,0.0
1478238856.0,286047106.7,N,0.0,0.0
1478238875.8,286047106.0,N,0.0,0.0
1478238895.7,286047106.4,N,0.0,0.0
1478238915.5,286047106.8,N,0.0,0.0
1478238935.3,286047105.2,N,0.0,0.0
1478238955.2,286047102.9,N,0.0,0.0
1478238975.9,286047106.6,N,0.0,0.0
1478238995.7,286047106.1,N,0.0,0.0
1478239015.6,286047106.5,N,0.0,0.0
1478239035.4,286047105.0,N,0.0,0.0
1478239055.2,286047106.2,N,0.0,0.0
1478239075.1,286047105.6,N,0.0,0.0
1478239076.0,286047105.6,N,0.0,0.0
1478239095.8,286047107.8,N,0.0,0.0
1478239115.7,286047108.4,N,0.0,0.0
1478239135.5,286047109.6,N,0.0,0.0
1478239155.3,286047109.3,N,0.0,0.0
1478239175.2,286047105.3,N,0.0,0.0
1478239195.9,286047109.2,N,0.0,0.0
